Location: Unspecified
(39.0670°S, 0.0000°E)
Time: 05:10:02
(UTC+00:00)

Envisat - Pass Details

Date: 05 July 2019
Orbit: 764 x 766 km, 98.1° (Epoch: 23 July)

Event Time Altitude Azimuth Distance (km) Brightness Sun altitude
Rises 06:07:36 0° 21° (NNE) 3,222 6.8 -13.6°
Reaches altitude 10° 06:09:53 10° 23° (NNE) 2,305 6.1 -13.2°
Maximum altitude 06:14:56 69° 105° (ESE) 829 3.4 -12.2°
Drops below altitude 10° 06:20:04 10° 188° (S) 2,336 5.2 -11.3°
Sets 06:22:24 0° 189° (S) 3,270 6.0 -10.9°
